Zurück zum Katalog

SL-12 DEB

LostHEO
NORAD 44562·DEBRIS·🇷🇺 Russia

Gestartet Sep 2, 2010 von Baikonur Cosmodrome

Loading…

Nächste Überflüge (nächste 24 Stunden)

TLE

VeraltetSource: Space-Track

Epoche: Dec 11, 2019, 07:01 UTC

1 44562U 10041AH  19345.29254252  .00234506  00000-0  15955+0 0  9994
2 44562  65.6774 254.1853 5786782  30.2209 353.2078  4.27788073    10

Verfolge SL-12 DEB in Echtzeit mit AllMySat

Download on the App Store